GFA277 VOHS-OBBI

Flight info

Callsign GFA277
Flight time N/A
Altitude 32000
Route TAMIV7 GODEP W28 BBB N519 EXOLU M638 KARKU L301 ANKOX/N0472F340 L301 RAGMA N571 MENSA DCT EGTAG P699 ORMID M556 ORDIG
Aircraft A21N/M-SDE2E3FGHIRWXY/LB1

Departure

Time 2026-04-28 16:46
Airport Rajiv Gandhi International Airport (VOHS)

Arrival

Time N/A
Airport Bahrain International Airport (OBBI)
Time Latitude Longitude Altitude Speed Heading
2026-04-28 15:39 17.45036 78.47153 1735 ft 0 kts 179°
2026-04-28 16:35 17.45045 78.47153 1733 ft 3 kts 179°
2026-04-28 16:36 17.45065 78.47153 1730 ft 3 kts 185°
2026-04-28 16:36 17.45085 78.47155 1731 ft 3 kts 196°
2026-04-28 16:36 17.45104 78.47162 1732 ft 3 kts 209°
2026-04-28 16:36 17.45121 78.47173 1733 ft 3 kts 223°
2026-04-28 16:37 17.45133 78.47184 1729 ft 1 kts 230°
2026-04-28 16:37 17.45136 78.47188 1728 ft 0 kts 230°
2026-04-28 16:40 17.45131 78.47181 1730 ft 5 kts 232°
2026-04-28 16:40 17.45136 78.47133 1731 ft 8 kts 278°
2026-04-28 16:40 17.45142 78.47090 1730 ft 11 kts 277°
2026-04-28 16:41 17.45138 78.46959 1734 ft 19 kts 268°
2026-04-28 16:41 17.45142 78.46816 1734 ft 20 kts 271°
2026-04-28 16:41 17.45141 78.46630 1737 ft 19 kts 269°
2026-04-28 16:41 17.45139 78.46493 1737 ft 19 kts 269°
2026-04-28 16:42 17.45137 78.46403 1743 ft 18 kts 268°
2026-04-28 16:42 17.45133 78.46272 1746 ft 18 kts 269°
2026-04-28 16:42 17.45132 78.46145 1747 ft 17 kts 269°
2026-04-28 16:42 17.45129 78.46017 1749 ft 18 kts 268°
2026-04-28 16:43 17.45125 78.45883 1751 ft 18 kts 270°
2026-04-28 16:43 17.45123 78.45749 1752 ft 18 kts 269°
2026-04-28 16:43 17.45120 78.45617 1754 ft 18 kts 269°
2026-04-28 16:43 17.45144 78.45540 1755 ft 9 kts 337°
2026-04-28 16:44 17.45215 78.45527 1749 ft 12 kts 356°
2026-04-28 16:44 17.45286 78.45566 1754 ft 13 kts 63°
2026-04-28 16:44 17.45293 78.45674 1754 ft 23 kts 89°
2026-04-28 16:44 17.45299 78.46111 1741 ft 94 kts 89°
2026-04-28 16:45 17.45315 78.47006 1733 ft 148 kts 89°
2026-04-28 16:45 17.45331 78.48233 1794 ft 181 kts 90°
2026-04-28 16:45 17.45310 78.49542 2357 ft 184 kts 92°
2026-04-28 16:45 17.45237 78.50981 2575 ft 210 kts 94°
2026-04-28 16:46 17.45143 78.52579 2854 ft 231 kts 94°
2026-04-28 16:46 17.45137 78.54317 3380 ft 239 kts 87°
2026-04-28 16:46 17.45301 78.56029 4285 ft 234 kts 81°
2026-04-28 16:46 17.45621 78.57734 4841 ft 249 kts 76°
2026-04-28 16:47 17.46122 78.59568 5037 ft 276 kts 71°
2026-04-28 16:47 17.47106 78.61307 5670 ft 279 kts 43°
2026-04-28 16:47 17.48727 78.62376 6518 ft 278 kts 17°
2026-04-28 16:47 17.50645 78.62574 7210 ft 281 kts 349°
2026-04-28 16:48 17.52451 78.61828 7904 ft 283 kts 322°
2026-04-28 16:48 17.53741 78.60291 8557 ft 284 kts 295°
2026-04-28 16:48 17.54222 78.58297 9223 ft 286 kts 267°
2026-04-28 16:48 17.53848 78.56431 9820 ft 288 kts 243°
2026-04-28 16:49 17.53016 78.55098 10267 ft 292 kts 231°
2026-04-28 16:49 17.51976 78.53190 10468 ft 313 kts 249°
2026-04-28 16:49 17.51422 78.50920 10667 ft 332 kts 261°
2026-04-28 16:49 17.51248 78.48471 11124 ft 341 kts 268°
2026-04-28 16:50 17.51267 78.46011 11754 ft 343 kts 271°
2026-04-28 16:50 17.51353 78.43501 12372 ft 347 kts 272°
2026-04-28 16:50 17.51452 78.40966 12976 ft 350 kts 272°
2026-04-28 16:50 17.51544 78.38407 13567 ft 353 kts 271°
2026-04-28 16:51 17.51627 78.35825 14139 ft 356 kts 271°
2026-04-28 16:51 17.51705 78.33221 14707 ft 359 kts 271°
2026-04-28 16:51 17.51779 78.30591 15258 ft 362 kts 271°
2026-04-28 16:51 17.51851 78.27945 15794 ft 365 kts 271°
2026-04-28 16:52 17.51923 78.25275 16316 ft 368 kts 271°
2026-04-28 16:52 17.51996 78.22586 16826 ft 371 kts 271°
2026-04-28 16:52 17.52068 78.19872 17323 ft 374 kts 271°
2026-04-28 16:52 17.52141 78.17138 17807 ft 377 kts 271°
2026-04-28 16:53 17.52213 78.14388 18282 ft 379 kts 271°
2026-04-28 16:53 17.52286 78.11613 18748 ft 382 kts 271°
2026-04-28 16:53 17.52358 78.08818 19203 ft 385 kts 271°
2026-04-28 16:53 17.52431 78.06010 19648 ft 387 kts 271°
2026-04-28 16:54 17.52504 78.03173 20086 ft 390 kts 271°
2026-04-28 16:54 17.52576 78.00326 20514 ft 393 kts 271°
2026-04-28 16:54 17.52649 77.97457 20934 ft 395 kts 271°
2026-04-28 16:54 17.52721 77.94568 21351 ft 398 kts 271°
2026-04-28 16:55 17.52794 77.91664 21739 ft 400 kts 271°
2026-04-28 16:55 17.52867 77.88742 22133 ft 403 kts 271°
2026-04-28 16:55 17.52940 77.85801 22513 ft 405 kts 271°
2026-04-28 16:55 17.53011 77.82884 22880 ft 407 kts 271°
2026-04-28 16:56 17.53084 77.79912 23247 ft 410 kts 271°
2026-04-28 16:56 17.53156 77.76918 23608 ft 412 kts 271°
2026-04-28 16:56 17.53229 77.73905 23950 ft 414 kts 271°
2026-04-28 16:56 17.53302 77.70880 24295 ft 416 kts 271°
2026-04-28 16:57 17.53374 77.67833 24632 ft 419 kts 271°
2026-04-28 16:57 17.53447 77.64774 24963 ft 421 kts 271°
2026-04-28 16:57 17.53519 77.61695 25283 ft 423 kts 271°
2026-04-28 16:57 17.53591 77.58608 25584 ft 425 kts 271°
2026-04-28 16:58 17.53662 77.55552 25875 ft 427 kts 271°
2026-04-28 16:58 17.53733 77.52438 26163 ft 429 kts 271°
2026-04-28 16:58 17.53805 77.49304 26444 ft 431 kts 271°
2026-04-28 16:58 17.53876 77.46159 26717 ft 432 kts 271°
2026-04-28 16:59 17.53901 77.45091 26808 ft 433 kts 271°
2026-04-28 16:59 17.53947 77.43034 26979 ft 434 kts 271°
2026-04-28 16:59 17.54018 77.39865 27236 ft 436 kts 271°
2026-04-28 16:59 17.54089 77.36682 27485 ft 438 kts 271°
2026-04-28 17:00 17.54159 77.33490 27724 ft 439 kts 271°
2026-04-28 17:00 17.54229 77.30286 27956 ft 441 kts 271°
2026-04-28 17:00 17.54299 77.27067 28181 ft 442 kts 271°
2026-04-28 17:00 17.54369 77.23836 28399 ft 444 kts 271°
2026-04-28 17:01 17.54438 77.20600 28608 ft 445 kts 271°
2026-04-28 17:01 17.54508 77.17349 28811 ft 447 kts 271°
2026-04-28 17:01 17.54576 77.14088 29008 ft 448 kts 271°
2026-04-28 17:01 17.54645 77.10821 29190 ft 450 kts 271°
2026-04-28 17:02 17.54713 77.07538 29383 ft 451 kts 271°
2026-04-28 17:02 17.54758 77.05360 29504 ft 452 kts 271°
2026-04-28 17:02 17.54848 77.00948 29746 ft 454 kts 271°
2026-04-28 17:02 17.54915 76.97637 29925 ft 455 kts 271°
2026-04-28 17:03 17.55047 76.91038 30279 ft 457 kts 271°
2026-04-28 17:03 17.55113 76.87703 30455 ft 459 kts 271°
2026-04-28 17:03 17.55179 76.84354 30618 ft 460 kts 271°
2026-04-28 17:04 17.55309 76.77637 30978 ft 462 kts 271°
2026-04-28 17:04 17.55374 76.74265 31187 ft 463 kts 271°
2026-04-28 17:05 17.55564 76.67537 31635 ft 462 kts 275°
2026-04-28 17:05 17.56026 76.64206 31851 ft 461 kts 281°
2026-04-28 17:05 17.56631 76.60907 32021 ft 462 kts 280°
2026-04-28 17:06 17.57817 76.54314 32000 ft 460 kts 280°
2026-04-28 17:06 17.59578 76.44426 32000 ft 460 kts 280°
2026-04-28 17:07 17.60750 76.37829 32000 ft 460 kts 280°
2026-04-28 17:07 17.61919 76.31241 32000 ft 460 kts 280°
2026-04-28 17:08 17.63087 76.24644 32000 ft 460 kts 280°
2026-04-28 17:08 17.64252 76.18051 32000 ft 460 kts 280°
2026-04-28 17:09 17.65408 76.11499 32000 ft 460 kts 280°
2026-04-28 17:09 17.66568 76.04907 32000 ft 460 kts 280°
2026-04-28 17:10 17.67730 75.98308 32000 ft 460 kts 280°
2026-04-28 17:10 17.69599 75.91929 31993 ft 460 kts 297°
2026-04-28 17:11 17.72930 75.86203 31992 ft 460 kts 302°
2026-04-28 17:11 17.76355 75.80531 31996 ft 460 kts 302°
2026-04-28 17:12 17.79768 75.74843 31997 ft 461 kts 302°
2026-04-28 17:12 17.83173 75.69148 32000 ft 461 kts 302°
2026-04-28 17:13 17.86579 75.63443 32002 ft 461 kts 302°
2026-04-28 17:13 17.89985 75.57733 32004 ft 461 kts 302°
2026-04-28 17:14 17.93389 75.52019 32005 ft 462 kts 302°
2026-04-28 17:14 17.96792 75.46300 32006 ft 462 kts 302°
2026-04-28 17:15 18.00171 75.40616 32007 ft 462 kts 302°
2026-04-28 17:15 18.03572 75.34893 32007 ft 462 kts 301°
2026-04-28 17:16 18.06970 75.29168 32006 ft 462 kts 301°
2026-04-28 17:16 18.10368 75.23440 32005 ft 462 kts 301°
2026-04-28 17:17 18.13760 75.17716 32004 ft 461 kts 301°
2026-04-28 17:17 18.17152 75.11987 32002 ft 461 kts 301°
2026-04-28 17:18 18.20543 75.06256 32001 ft 461 kts 301°
2026-04-28 17:18 18.23928 75.00529 32000 ft 461 kts 301°
2026-04-28 17:19 18.27311 74.94801 31999 ft 461 kts 301°
2026-04-28 17:19 18.30669 74.89109 31998 ft 461 kts 301°
2026-04-28 17:20 18.33499 74.84309 31998 ft 461 kts 301°
2026-04-28 17:20 18.37423 74.77646 31998 ft 461 kts 301°
2026-04-28 17:21 18.40798 74.71911 31998 ft 461 kts 301°
2026-04-28 17:22 18.45856 74.63307 31998 ft 461 kts 301°
2026-04-28 17:22 18.49226 74.57566 31999 ft 461 kts 301°
2026-04-28 17:23 18.54281 74.48947 32000 ft 461 kts 301°
2026-04-28 17:23 18.57649 74.43197 32001 ft 461 kts 301°
2026-04-28 17:24 18.61019 74.37439 32001 ft 461 kts 301°
2026-04-28 17:24 18.64383 74.31686 32002 ft 461 kts 301°
2026-04-28 17:25 18.69406 74.23085 32002 ft 461 kts 301°
2026-04-28 17:26 18.72768 74.17321 32003 ft 461 kts 301°
2026-04-28 17:26 18.76128 74.11558 32003 ft 461 kts 301°
2026-04-28 17:27 18.79489 74.05786 32002 ft 461 kts 301°
2026-04-28 17:27 18.82845 74.00016 32002 ft 461 kts 301°
2026-04-28 17:28 18.86199 73.94246 32002 ft 461 kts 301°
2026-04-28 17:28 18.91227 73.85585 32002 ft 461 kts 301°
2026-04-28 17:29 18.94580 73.79804 32002 ft 461 kts 301°
2026-04-28 17:30 18.99297 73.71659 32001 ft 461 kts 301°
2026-04-28 17:30 19.04313 73.62988 32001 ft 461 kts 301°
2026-04-28 17:31 19.09302 73.54351 32001 ft 461 kts 301°
2026-04-28 17:32 19.14316 73.45657 32000 ft 461 kts 301°
2026-04-28 17:32 19.17652 73.39867 32000 ft 461 kts 301°
2026-04-28 17:33 19.20986 73.34076 31999 ft 461 kts 301°
2026-04-28 17:33 19.23192 73.30239 31999 ft 461 kts 301°
2026-04-28 17:34 19.27087 73.23461 31999 ft 461 kts 301°
2026-04-28 17:34 19.30416 73.17661 31999 ft 461 kts 301°
2026-04-28 17:35 19.33743 73.11860 32000 ft 461 kts 301°
2026-04-28 17:35 19.37065 73.06062 32000 ft 461 kts 301°
2026-04-28 17:36 19.40391 73.00250 32000 ft 461 kts 301°
2026-04-28 17:36 19.43711 72.94445 32001 ft 461 kts 301°
2026-04-28 17:37 19.47033 72.88629 32001 ft 461 kts 301°
2026-04-28 17:37 19.50329 72.82854 32001 ft 461 kts 301°
2026-04-28 17:38 19.53646 72.77037 32001 ft 461 kts 301°
2026-04-28 17:38 19.56962 72.71215 32001 ft 461 kts 301°
2026-04-28 17:39 19.60277 72.65390 32001 ft 461 kts 301°
2026-04-28 17:40 19.65240 72.56657 32001 ft 461 kts 301°
2026-04-28 17:40 19.68550 72.50827 32001 ft 461 kts 301°
2026-04-28 17:41 19.71858 72.44994 32000 ft 461 kts 301°
2026-04-28 17:41 19.75161 72.39164 32000 ft 461 kts 301°
2026-04-28 17:42 19.78464 72.33328 32000 ft 461 kts 301°
2026-04-28 17:42 19.81762 72.27495 32000 ft 461 kts 301°
2026-04-28 17:43 19.85038 72.21696 32000 ft 461 kts 301°
2026-04-28 17:43 19.88335 72.15853 32000 ft 461 kts 300°
2026-04-28 17:44 19.91629 72.10011 32000 ft 461 kts 300°
2026-04-28 17:44 19.94923 72.04162 32000 ft 461 kts 300°
2026-04-28 17:45 19.98215 71.98311 32000 ft 461 kts 300°
2026-04-28 17:45 20.01504 71.92459 32001 ft 461 kts 300°
2026-04-28 17:46 20.04791 71.86605 32001 ft 461 kts 300°
2026-04-28 17:46 20.08079 71.80744 32001 ft 461 kts 300°
2026-04-28 17:47 20.11361 71.74887 32001 ft 461 kts 300°
2026-04-28 17:47 20.14624 71.69062 32001 ft 461 kts 300°
2026-04-28 17:48 20.17903 71.63202 32001 ft 461 kts 300°
2026-04-28 17:48 20.20978 71.57220 32000 ft 461 kts 294°
2026-04-28 17:49 20.23331 71.50886 32000 ft 460 kts 288°
2026-04-28 17:49 20.25362 71.44421 32000 ft 460 kts 288°
2026-04-28 17:50 20.27413 71.37964 32000 ft 460 kts 288°
2026-04-28 17:50 20.29460 71.31504 32001 ft 460 kts 288°
2026-04-28 17:51 20.31503 71.25038 32001 ft 460 kts 288°
2026-04-28 17:51 20.33542 71.18574 32001 ft 460 kts 288°
2026-04-28 17:52 20.35579 71.12106 32001 ft 460 kts 288°
2026-04-28 17:52 20.38632 71.02397 32002 ft 460 kts 288°
2026-04-28 17:53 20.40665 70.95923 32002 ft 460 kts 288°
2026-04-28 17:53 20.42694 70.89447 32002 ft 460 kts 288°
2026-04-28 17:54 20.44723 70.82966 32001 ft 460 kts 288°
2026-04-28 17:54 20.46734 70.76533 32001 ft 460 kts 288°
2026-04-28 17:55 20.48756 70.70052 32001 ft 460 kts 288°
2026-04-28 17:55 20.50776 70.63573 32001 ft 460 kts 288°
2026-04-28 17:56 20.52793 70.57089 32001 ft 460 kts 288°
2026-04-28 17:56 20.54808 70.50606 32001 ft 460 kts 288°
2026-04-28 17:57 20.56820 70.44119 32000 ft 460 kts 288°
2026-04-28 17:57 20.58830 70.37635 32000 ft 460 kts 288°
2026-04-28 17:58 20.60837 70.31146 32000 ft 460 kts 288°
2026-04-28 17:58 20.62842 70.24655 32000 ft 460 kts 288°
2026-04-28 17:59 20.64844 70.18165 32000 ft 460 kts 288°
2026-04-28 17:59 20.66831 70.11714 32000 ft 460 kts 288°
2026-04-28 18:00 20.68828 70.05220 32000 ft 460 kts 288°
2026-04-28 18:00 20.70825 69.98719 32000 ft 460 kts 288°
2026-04-28 18:01 20.72817 69.92223 32001 ft 460 kts 288°
2026-04-28 18:01 20.74807 69.85723 32001 ft 460 kts 288°
2026-04-28 18:02 20.76795 69.79221 32001 ft 460 kts 288°
2026-04-28 18:02 20.78781 69.72717 32001 ft 460 kts 288°
2026-04-28 18:03 20.80766 69.66205 32001 ft 460 kts 288°
2026-04-28 18:03 20.82746 69.59699 32001 ft 460 kts 288°
2026-04-28 18:04 20.84711 69.53233 32001 ft 460 kts 288°
2026-04-28 18:04 20.86688 69.46720 32001 ft 460 kts 288°
2026-04-28 18:05 20.88342 69.41261 32001 ft 460 kts 288°
2026-04-28 18:05 20.90633 69.33689 32001 ft 460 kts 288°
2026-04-28 18:06 20.92601 69.27174 32001 ft 460 kts 288°
2026-04-28 18:06 20.94569 69.20649 32001 ft 460 kts 287°
2026-04-28 18:07 20.96532 69.14134 32001 ft 460 kts 287°
2026-04-28 18:07 20.98817 69.07784 32000 ft 460 kts 294°
2026-04-28 18:08 21.01443 69.01536 32000 ft 460 kts 294°
2026-04-28 18:08 21.04061 68.95277 32000 ft 461 kts 294°
2026-04-28 18:09 21.06675 68.89016 32000 ft 461 kts 294°
2026-04-28 18:09 21.09287 68.82751 32000 ft 461 kts 294°
2026-04-28 18:10 21.11895 68.76487 32001 ft 461 kts 294°
2026-04-28 18:10 21.14503 68.70217 32001 ft 461 kts 294°
2026-04-28 18:11 21.17109 68.63943 32001 ft 461 kts 294°
2026-04-28 18:11 21.19710 68.57672 32001 ft 461 kts 294°
2026-04-28 18:12 21.22293 68.51439 32001 ft 461 kts 294°
2026-04-28 18:12 21.24893 68.45155 32001 ft 461 kts 294°
2026-04-28 18:13 21.27488 68.38878 32001 ft 461 kts 293°
2026-04-28 18:13 21.30079 68.32600 32001 ft 461 kts 293°
2026-04-28 18:14 21.32671 68.26312 32001 ft 461 kts 293°
2026-04-28 18:14 21.35261 68.20024 32001 ft 461 kts 293°
2026-04-28 18:15 21.37847 68.13737 32001 ft 461 kts 293°
2026-04-28 18:15 21.40413 68.07490 32001 ft 461 kts 293°
2026-04-28 18:16 21.42994 68.01197 32001 ft 461 kts 293°
2026-04-28 18:16 21.45572 67.94905 32000 ft 461 kts 293°
2026-04-28 18:17 21.48148 67.88608 32000 ft 461 kts 293°
2026-04-28 18:17 21.50721 67.82313 32000 ft 461 kts 293°
2026-04-28 18:18 21.53292 67.76013 32000 ft 461 kts 293°
2026-04-28 18:18 21.55428 67.70775 32000 ft 461 kts 293°
2026-04-28 18:19 21.58427 67.63409 32000 ft 461 kts 293°
2026-04-28 18:19 21.60993 67.57098 32000 ft 461 kts 293°
2026-04-28 18:20 21.63554 67.50790 32001 ft 461 kts 293°
2026-04-28 18:20 21.66096 67.44523 32001 ft 461 kts 293°
2026-04-28 18:21 21.68654 67.38205 32001 ft 461 kts 293°
2026-04-28 18:21 21.71211 67.31884 32001 ft 461 kts 293°
2026-04-28 18:22 21.73764 67.25564 32001 ft 461 kts 293°
2026-04-28 18:22 21.76313 67.19247 32001 ft 461 kts 293°
2026-04-28 18:23 21.78861 67.12927 30721 ft 456 kts 292°
2026-04-28 18:23 21.80107 67.09843 31069 ft 446 kts 292°
2026-04-28 18:23 21.81336 67.06791 31423 ft 443 kts 292°
2026-04-28 18:24 21.82553 67.03764 31772 ft 439 kts 292°
2026-04-28 18:24 21.82946 67.02785 31801 ft 441 kts 292°
2026-04-28 18:24 21.86220 66.94625 31786 ft 448 kts 292°
2026-04-28 18:25 21.88686 66.88474 31793 ft 447 kts 292°
2026-04-28 18:26 21.92378 66.79248 31782 ft 447 kts 292°
2026-04-28 18:26 21.94834 66.73098 31784 ft 447 kts 292°
2026-04-28 18:27 21.97288 66.66948 31785 ft 447 kts 292°
2026-04-28 18:27 21.99739 66.60796 31785 ft 447 kts 292°
2026-04-28 18:28 22.02188 66.54645 31778 ft 446 kts 292°
2026-04-28 18:28 22.04221 66.49536 31779 ft 446 kts 292°
2026-04-28 18:29 22.06664 66.43381 31778 ft 446 kts 292°
2026-04-28 18:29 22.09100 66.37232 31784 ft 446 kts 292°
2026-04-28 18:30 22.11539 66.31080 31785 ft 446 kts 292°